FW5169 Weather Reports


Display with metric or nautical units.
time (UTC)temp
F
wind
direction
speed
MPH
gust
MPH
rain 1hr
in
rain 24hr
in
rain mn
in
humidity
%
barometer
mb
20260906011830 79 19 4.0 11.0 0.00 0.00 0.00 88 1015.6
20260906010355 80 20 5.0 12.0 0.00 0.00 0.00 87 1015.2
20260906004836 81 36 7.0 12.0 0.00 0.00 0.00 86 1015.1
20260906003326 82 19 6.0 10.0 0.00 0.00 0.00 85 1014.7
20260906001830 83 9 4.0 9.0 0.00 0.00 0.00 84 1014.7
20260906000338 84 30 6.0 10.0 0.00 0.00 0.00 82 1015.0
20260905233323 86 16 5.0 11.0 0.00 0.00 0.00 80 1014.8
20260905231823 88 13 6.0 11.0 0.00 0.00 0.00 77 1014.4
20260905230352 89 30 6.0 13.0 0.00 0.00 0.00 77 1014.3
20260905224834 90 23 6.0 12.0 0.00 0.00 0.00 75 1014.3
20260905223318 90 21 4.0 9.0 0.00 0.00 0.00 75 1014.3
20260905221824 91 22 6.0 13.0 0.00 0.00 0.00 73 1014.4
20260905220329 92 1 5.0 12.0 0.00 0.00 0.00 71 1014.3
20260905214833 92 49 4.0 8.0 0.00 0.00 0.00 72 1014.2
20260905213317 92 347 4.0 10.0 0.00 0.00 0.00 71 1014.3
20260905211845 92 356 2.0 8.0 0.00 0.00 0.00 73 1014.2
20260905210330 93 31 4.0 8.0 0.00 0.00 0.00 72 1014.1
20260905204835 92 7 4.0 11.0 0.00 0.00 0.00 70 1014.3
20260905203321 92 321 3.0 9.0 0.00 0.00 0.00 70 1014.5
20260905201821 92 301 2.0 8.0 0.00 0.00 0.00 71 1014.6
20260905200325 92 18 2.0 8.0 0.00 0.00 0.00 72 1014.7
20260905194832 93 20 4.0 8.0 0.00 0.00 0.00 73 1014.7
20260905193317 92 19 4.0 9.0 0.00 0.00 0.00 70 1014.6
20260905191817 91 9 3.0 9.0 0.00 0.00 0.00 74 1014.8
20260905190347 91 15 5.0 9.0 0.00 0.00 0.00 73 1015.0
20260905184847 93 13 4.0 8.0 0.00 0.00 0.00 71 1015.0
20260905183332 93 23 4.0 7.0 0.00 0.00 0.00 69 1015.2
20260905181835 93 17 2.0 7.0 0.00 0.00 0.00 73 1015.2
20260905180344 92 27 5.0 9.0 0.00 0.00 0.00 73 1015.1
20260905174826 92 20 2.0 6.0 0.00 0.00 0.00 72 1015.4
20260905173333 92 352 1.0 9.0 0.00 0.00 0.00 72 1015.5
20260905170319 91 33 4.0 10.0 0.00 0.00 0.00 73 1015.6
20260905164824 90 14 4.0 7.0 0.00 0.00 0.00 73 1015.8
20260905163334 90 6 6.0 8.0 0.00 0.00 0.00 72 1015.9
20260905161837 90 22 5.0 7.0 0.00 0.00 0.00 73 1015.9
20260905160322 90 302 2.0 8.0 0.00 0.00 0.00 72 1015.8
20260905154831 89 313 4.0 8.0 0.00 0.00 0.00 73 1015.7
20260905153336 89 17 2.0 5.0 0.00 0.00 0.00 74 1015.6
20260905151818 89 302 2.0 7.0 0.00 0.00 0.00 73 1015.6
20260905150326 88 34 3.0 6.0 0.00 0.00 0.00 74 1015.4
20260905144829 87 290 2.0 5.0 0.00 0.00 0.00 76 1015.4
20260905143335 87 295 1.0 6.0 0.00 0.00 0.00 75 1015.3
20260905141824 87 36 1.0 4.0 0.00 0.00 0.00 76 1015.2
20260905140330 86 25 1.0 4.0 0.00 0.00 0.00 78 1015.2
20260905134835 85 258 0.0 3.0 0.00 0.00 0.00 81 1015.1
20260905133343 83 275 0.0 2.0 0.00 0.00 0.00 83 1015.2
20260905131826 81 287 1.0 2.0 0.00 0.00 0.00 88 1015.2
20260905130334 79 172 0.0 0.0 0.00 0.00 0.00 93 1015.1
20260905124840 77 25 0.0 0.0 0.00 0.00 0.00 97 1014.8
20260905123325 75 25 0.0 0.0 0.00 0.00 0.00 98 1014.8
20260905121849 75 25 0.0 0.0 0.00 0.00 0.00 98 1014.7
20260905120335 74 25 0.0 0.0 0.00 0.00 0.00 98 1014.5
20260905114822 74 25 0.0 0.0 0.00 0.00 0.00 98 1014.5
20260905113330 74 25 0.0 0.0 0.00 0.00 0.00 97 1014.3
20260905111832 74 25 0.0 0.0 0.00 0.00 0.00 98 1014.2
20260905110322 75 25 0.0 0.0 0.00 0.00 0.00 97 1014.1
20260905104828 75 25 0.0 0.0 0.00 0.00 0.00 97 1014.3
20260905103334 75 25 0.0 0.0 0.00 0.00 0.00 97 1014.4
20260905101841 75 25 0.0 0.0 0.00 0.00 0.00 97 1014.3
20260905094821 75 25 0.0 0.0 0.00 0.00 0.00 97 1014.4
20260905093332 75 25 0.0 0.0 0.00 0.00 0.00 97 1014.4
20260905091834 75 25 0.0 0.0 0.00 0.00 0.00 97 1014.3
20260905090318 76 25 0.0 0.0 0.00 0.00 0.00 97 1014.4
20260905084845 76 25 0.0 0.0 0.00 0.00 0.00 97 1014.4
20260905083350 76 25 0.0 0.0 0.00 0.00 0.00 96 1014.5
20260905081833 77 25 0.0 0.0 0.00 0.00 0.00 95 1014.4
20260905080317 77 25 0.0 0.0 0.00 0.00 0.00 95 1014.6
20260905074847 77 25 0.0 0.0 0.00 0.00 0.00 95 1014.7
20260905073333 78 25 0.0 0.0 0.00 0.00 0.00 94 1014.7
20260905070347 78 25 0.0 0.0 0.00 0.00 0.00 91 1015.0
20260905064828 79 25 0.0 0.0 0.00 0.00 0.00 91 1014.8
20260905063355 79 25 0.0 0.0 0.00 0.00 0.00 90 1014.8
20260905061820 78 25 0.0 0.0 0.00 0.00 0.00 91 1015.2
20260905060325 78 25 0.0 0.0 0.00 0.00 0.00 91 1015.1
20260905054826 79 25 0.0 0.0 0.00 0.00 0.00 91 1015.1
20260905053333 79 25 0.0 0.0 0.00 0.00 0.00 91 1015.1
20260905051821 79 25 0.0 0.0 0.00 0.00 0.00 91 1015.0
20260905050327 79 25 0.0 0.0 0.00 0.00 0.00 90 1014.9
20260905044850 79 25 0.0 0.0 0.00 0.00 0.00 90 1015.1
20260905043319 79 25 0.0 0.0 0.00 0.00 0.00 91 1014.8
20260905041819 79 25 0.0 0.0 0.00 0.00 0.00 91 1014.9
20260905040346 79 25 0.0 0.0 0.00 0.00 0.00 91 1014.9
20260905034832 79 25 0.0 0.0 0.00 0.00 0.00 92 1015.0
20260905033315 79 25 0.0 0.0 0.00 0.00 0.00 92 1015.0
20260905031818 80 25 0.0 0.0 0.00 0.00 0.00 90 1015.0
20260905030344 81 25 0.0 0.0 0.00 0.00 0.00 88 1014.8
20260905024831 82 25 0.0 0.0 0.00 0.00 0.00 88 1014.8
20260905023317 82 25 0.0 0.0 0.00 0.00 0.00 87 1014.8
20260905021820 83 25 0.0 0.0 0.00 0.00 0.00 86 1014.8
20260905020330 83 251 0.0 0.0 0.00 0.00 0.00 86 1014.7
20260905014813 83 251 0.0 0.0 0.00 0.00 0.00 86 1014.6
20260905013319 83 251 0.0 0.0 0.00 0.00 0.00 86 1014.4